Location: *
(38.9800°N, 16.0500°E)
Time: 05:49:47
(UTC+00:00)

CZ-2C R/B - Pass Details

Date: 07 April 2020
Orbit: 501 x 569 km, 97.7° (Epoch: 27 May)

Event Time Altitude Azimuth Distance (km) Brightness Sun altitude
Rises 02:35:05 0° 5° (N) 2,772 6.9 -22.0°
Reaches altitude 10° 02:37:18 10° 0° (N) 1,865 5.9 -21.6°
Enters shadow 02:40:51 46° 303° (WNW) 759 3.2 -21.0°
